| time (UTC) | temp C | wind direction | speed KPH | gust KPH | rain 1hr cm | rain 24hr cm | rain mn cm | humidity % | barometer mb |
| 20260510140006 | 17 | 5 | 9.7 | 22.5 | 0.00 | 0.00 | 0.00 | 62 | 1012.7 |
| 20260510135505 | 17 | 347 | 9.7 | 22.5 | 0.00 | 0.00 | 0.00 | 61 | 1012.7 |
| 20260510135005 | 17 | 344 | 9.7 | 22.5 | 0.00 | 0.00 | 0.00 | 60 | 1012.7 |
| 20260510134505 | 17 | 357 | 8.0 | 19.3 | 0.00 | 0.00 | 0.00 | 60 | 1012.8 |
| 20260510134005 | 18 | 357 | 8.0 | 19.3 | 0.00 | 0.00 | 0.00 | 61 | 1012.9 |
| 20260510132505 | 18 | 3 | 9.7 | 22.5 | 0.00 | 0.00 | 0.00 | 57 | 1013.1 |
| 20260510132005 | 18 | 345 | 8.0 | 19.3 | 0.00 | 0.00 | 0.00 | 58 | 1013.1 |
| 20260510131505 | 17 | 346 | 11.3 | 22.5 | 0.00 | 0.00 | 0.00 | 59 | 1013.2 |
| 20260510130502 | 18 | 4 | 9.7 | 22.5 | 0.00 | 0.00 | 0.00 | 58 | 1013.2 |
| 20260510130006 | 18 | 7 | 11.3 | 22.5 | 0.00 | 0.00 | 0.00 | 55 | 1013.3 |
| 20260510125505 | 18 | 359 | 9.7 | 20.9 | 0.00 | 0.00 | 0.00 | 58 | 1013.3 |
| 20260510124505 | 18 | 2 | 8.0 | 20.9 | 0.00 | 0.00 | 0.00 | 58 | 1013.5 |
| 20260510124021 | 18 | 355 | 9.7 | 20.9 | 0.00 | 0.00 | 0.00 | 59 | 1013.6 |
| 20260510123505 | 18 | 359 | 8.0 | 17.7 | 0.00 | 0.00 | 0.00 | 57 | 1013.6 |
| 20260510123006 | 18 | 11 | 9.7 | 17.7 | 0.00 | 0.00 | 0.00 | 58 | 1013.7 |
| 20260510122505 | 18 | 13 | 11.3 | 22.5 | 0.00 | 0.00 | 0.00 | 61 | 1013.7 |
| 20260510122005 | 17 | 5 | 9.7 | 22.5 | 0.00 | 0.00 | 0.00 | 58 | 1013.9 |
| 20260510121506 | 18 | 355 | 9.7 | 22.5 | 0.00 | 0.00 | 0.00 | 58 | 1013.9 |
| 20260510121005 | 18 | 7 | 11.3 | 25.7 | 0.00 | 0.00 | 0.00 | 55 | 1013.9 |
| 20260510120505 | 18 | 7 | 11.3 | 25.7 | 0.00 | 0.00 | 0.00 | 58 | 1013.9 |
| 20260510120005 | 18 | 6 | 11.3 | 19.3 | 0.00 | 0.00 | 0.00 | 55 | 1013.9 |
| 20260510115505 | 18 | 4 | 12.9 | 20.9 | 0.00 | 0.00 | 0.00 | 60 | 1014.0 |
| 20260510115005 | 18 | 7 | 11.3 | 20.9 | 0.00 | 0.00 | 0.00 | 55 | 1014.0 |
| 20260510114505 | 18 | 7 | 11.3 | 20.9 | 0.00 | 0.00 | 0.00 | 58 | 1014.0 |
| 20260510114005 | 18 | 356 | 9.7 | 20.9 | 0.00 | 0.00 | 0.00 | 58 | 1014.0 |
| 20260510113005 | 18 | 7 | 9.7 | 20.9 | 0.00 | 0.00 | 0.00 | 61 | 1014.1 |
| 20260510112505 | 18 | 2 | 9.7 | 20.9 | 0.00 | 0.00 | 0.00 | 58 | 1014.2 |
| 20260510112005 | 18 | 5 | 9.7 | 19.3 | 0.00 | 0.00 | 0.00 | 60 | 1014.2 |
| 20260510111505 | 18 | 7 | 9.7 | 20.9 | 0.00 | 0.00 | 0.00 | 59 | 1014.3 |
| 20260510111005 | 17 | 357 | 9.7 | 20.9 | 0.00 | 0.00 | 0.00 | 61 | 1014.3 |
| 20260510110506 | 17 | 348 | 9.7 | 19.3 | 0.00 | 0.00 | 0.00 | 62 | 1014.4 |
| 20260510105506 | 17 | 345 | 8.0 | 19.3 | 0.00 | 0.00 | 0.00 | 62 | 1014.5 |
| 20260510105005 | 17 | 345 | 9.7 | 19.3 | 0.00 | 0.00 | 0.00 | 59 | 1014.4 |
| 20260510104005 | 18 | 352 | 9.7 | 22.5 | 0.00 | 0.00 | 0.00 | 59 | 1014.5 |
| 20260510103505 | 17 | 351 | 8.0 | 20.9 | 0.00 | 0.00 | 0.00 | 60 | 1014.5 |
| 20260510103005 | 18 | 359 | 9.7 | 17.7 | 0.00 | 0.00 | 0.00 | 61 | 1014.6 |
| 20260510102506 | 17 | 357 | 9.7 | 19.3 | 0.00 | 0.00 | 0.00 | 61 | 1014.6 |
| 20260510102005 | 17 | 345 | 8.0 | 19.3 | 0.00 | 0.00 | 0.00 | 61 | 1014.6 |
| 20260510101005 | 17 | 12 | 11.3 | 20.9 | 0.00 | 0.00 | 0.00 | 58 | 1014.7 |
| 20260510100005 | 17 | 358 | 9.7 | 20.9 | 0.00 | 0.00 | 0.00 | 58 | 1014.7 |
| 20260510095505 | 17 | 9 | 9.7 | 20.9 | 0.00 | 0.00 | 0.00 | 57 | 1014.8 |
| 20260510095005 | 17 | 10 | 9.7 | 24.1 | 0.00 | 0.00 | 0.00 | 58 | 1014.8 |
| 20260510094505 | 17 | 10 | 11.3 | 24.1 | 0.00 | 0.00 | 0.00 | 58 | 1014.8 |
| 20260510093505 | 17 | 355 | 9.7 | 19.3 | 0.00 | 0.00 | 0.00 | 56 | 1014.9 |
| 20260510092505 | 17 | 12 | 9.7 | 19.3 | 0.00 | 0.00 | 0.00 | 59 | 1015.0 |
| 20260510092005 | 17 | 1 | 9.7 | 19.3 | 0.00 | 0.00 | 0.00 | 59 | 1014.9 |
| 20260510091506 | 17 | 344 | 9.7 | 19.3 | 0.00 | 0.00 | 0.00 | 57 | 1015.0 |
| 20260510091005 | 17 | 347 | 8.0 | 19.3 | 0.00 | 0.00 | 0.00 | 56 | 1015.1 |
| 20260510090505 | 17 | 354 | 6.4 | 17.7 | 0.00 | 0.00 | 0.00 | 57 | 1015.1 |
| 20260510090006 | 17 | 349 | 6.4 | 17.7 | 0.00 | 0.00 | 0.00 | 56 | 1015.0 |
| 20260510085506 | 17 | 352 | 8.0 | 22.5 | 0.00 | 0.00 | 0.00 | 59 | 1015.0 |
| 20260510085006 | 16 | 1 | 9.7 | 22.5 | 0.00 | 0.00 | 0.00 | 61 | 1015.1 |
| 20260510084505 | 16 | 5 | 9.7 | 20.9 | 0.00 | 0.00 | 0.00 | 62 | 1015.0 |
| 20260510084006 | 17 | 2 | 9.7 | 20.9 | 0.00 | 0.00 | 0.00 | 61 | 1015.1 |
| 20260510083505 | 16 | 1 | 9.7 | 19.3 | 0.00 | 0.00 | 0.00 | 64 | 1015.2 |
| 20260510083005 | 16 | 1 | 9.7 | 19.3 | 0.00 | 0.00 | 0.00 | 64 | 1015.3 |
| 20260510082505 | 16 | 6 | 8.0 | 19.3 | 0.00 | 0.00 | 0.00 | 67 | 1015.4 |
| 20260510082005 | 16 | 3 | 8.0 | 19.3 | 0.00 | 0.00 | 0.00 | 69 | 1015.3 |
| 20260510081506 | 16 | 354 | 6.4 | 19.3 | 0.00 | 0.00 | 0.00 | 68 | 1015.4 |
| 20260510081005 | 15 | 351 | 8.0 | 20.9 | 0.00 | 0.00 | 0.00 | 69 | 1015.4 |
| 20260510080504 | 15 | 346 | 8.0 | 20.9 | 0.00 | 0.00 | 0.00 | 68 | 1015.3 |
| 20260510080005 | 15 | 343 | 6.4 | 17.7 | 0.00 | 0.00 | 0.00 | 69 | 1015.4 |
| 20260510075505 | 15 | 351 | 3.2 | 16.1 | 0.00 | 0.00 | 0.00 | 69 | 1015.4 |
| 20260510075005 | 15 | 357 | 4.8 | 22.5 | 0.00 | 0.00 | 0.00 | 68 | 1015.3 |
| 20260510074005 | 15 | 348 | 3.2 | 16.1 | 0.00 | 0.00 | 0.00 | 69 | 1015.4 |
| 20260510073504 | 15 | 356 | 3.2 | 16.1 | 0.00 | 0.00 | 0.00 | 72 | 1015.4 |
| 20260510073005 | 15 | 352 | 3.2 | 14.5 | 0.00 | 0.00 | 0.00 | 71 | 1015.5 |
| 20260510072505 | 15 | 342 | 3.2 | 14.5 | 0.00 | 0.00 | 0.00 | 75 | 1015.6 |
| 20260510072005 | 14 | 343 | 3.2 | 17.7 | 0.00 | 0.00 | 0.00 | 75 | 1015.6 |
| 20260510071505 | 14 | 350 | 3.2 | 17.7 | 0.00 | 0.00 | 0.00 | 76 | 1015.5 |
| 20260510071005 | 13 | 356 | 3.2 | 14.5 | 0.00 | 0.00 | 0.00 | 78 | 1015.6 |
| 20260510070505 | 13 | 351 | 3.2 | 14.5 | 0.00 | 0.00 | 0.00 | 80 | 1015.6 |
| 20260510070005 | 13 | 347 | 3.2 | 11.3 | 0.00 | 0.00 | 0.00 | 79 | 1015.5 |
| 20260510065505 | 13 | 349 | 3.2 | 11.3 | 0.00 | 0.00 | 0.00 | 80 | 1015.5 |
| 20260510064006 | 12 | 326 | 3.2 | 12.9 | 0.00 | 0.00 | 0.00 | 82 | 1015.5 |
| 20260510063505 | 12 | 328 | 3.2 | 12.9 | 0.00 | 0.00 | 0.00 | 83 | 1015.5 |
| 20260510063005 | 12 | 328 | 3.2 | 8.0 | 0.00 | 0.00 | 0.00 | 84 | 1015.5 |
| 20260510062506 | 11 | 327 | 3.2 | 16.1 | 0.00 | 0.00 | 0.00 | 84 | 1015.5 |
| 20260510062005 | 11 | 332 | 3.2 | 16.1 | 0.00 | 0.00 | 0.00 | 84 | 1015.6 |
| 20260510061005 | 11 | 325 | 3.2 | 16.1 | 0.00 | 0.00 | 0.00 | 86 | 1015.7 |
| 20260510055506 | 11 | 332 | 3.2 | 8.0 | 0.00 | 0.00 | 0.00 | 87 | 1015.5 |
| 20260510054505 | 10 | 332 | 4.8 | 14.5 | 0.00 | 0.00 | 0.00 | 88 | 1015.5 |
| 20260510054005 | 10 | 328 | 4.8 | 14.5 | 0.00 | 0.00 | 0.00 | 88 | 1015.6 |
| 20260510053505 | 10 | 325 | 4.8 | 8.0 | 0.00 | 0.00 | 0.00 | 89 | 1015.6 |
| 20260510053005 | 10 | 327 | 4.8 | 12.9 | 0.00 | 0.00 | 0.00 | 89 | 1015.7 |
| 20260510052506 | 10 | 329 | 3.2 | 12.9 | 0.00 | 0.00 | 0.00 | 89 | 1015.7 |
| 20260510052005 | 10 | 329 | 3.2 | 6.4 | 0.00 | 0.00 | 0.00 | 90 | 1015.5 |
| 20260510051005 | 10 | 331 | 3.2 | 9.7 | 0.00 | 0.00 | 0.00 | 91 | 1015.6 |
| 20260510050505 | 10 | 333 | 3.2 | 9.7 | 0.00 | 0.00 | 0.00 | 91 | 1015.5 |
| 20260510050005 | 9 | 329 | 3.2 | 11.3 | 0.00 | 0.00 | 0.00 | 91 | 1015.6 |
| 20260510045506 | 9 | 329 | 3.2 | 11.3 | 0.00 | 0.00 | 0.00 | 92 | 1015.6 |
| 20260510045005 | 9 | 329 | 4.8 | 8.0 | 0.00 | 0.00 | 0.00 | 92 | 1015.5 |
| 20260510044005 | 9 | 322 | 3.2 | 8.0 | 0.00 | 0.00 | 0.00 | 91 | 1015.6 |
| 20260510043505 | 9 | 323 | 3.2 | 9.7 | 0.00 | 0.00 | 0.00 | 91 | 1015.6 |
| 20260510042506 | 9 | 323 | 3.2 | 8.0 | 0.00 | 0.00 | 0.00 | 91 | 1015.5 |
| 20260510042005 | 9 | 326 | 3.2 | 8.0 | 0.00 | 0.00 | 0.00 | 91 | 1015.6 |
| 20260510041505 | 9 | 324 | 3.2 | 8.0 | 0.00 | 0.00 | 0.00 | 91 | 1015.5 |
| 20260510040505 | 9 | 326 | 3.2 | 8.0 | 0.00 | 0.00 | 0.00 | 91 | 1015.4 |
| 20260510040005 | 9 | 331 | 3.2 | 14.5 | 0.00 | 0.00 | 0.00 | 91 | 1015.4 |
| 20260510035005 | 9 | 329 | 4.8 | 11.3 | 0.00 | 0.00 | 0.00 | 90 | 1015.3 |
| 20260510034005 | 9 | 322 | 3.2 | 8.0 | 0.00 | 0.00 | 0.00 | 90 | 1015.3 |
| 20260510033505 | 9 | 323 | 3.2 | 8.0 | 0.00 | 0.00 | 0.00 | 90 | 1015.3 |
| 20260510033005 | 10 | 326 | 3.2 | 14.5 | 0.00 | 0.00 | 0.00 | 89 | 1015.4 |
| 20260510032505 | 10 | 329 | 4.8 | 14.5 | 0.00 | 0.00 | 0.00 | 90 | 1015.4 |
| 20260510032005 | 10 | 328 | 4.8 | 12.9 | 0.00 | 0.00 | 0.00 | 90 | 1015.4 |
| 20260510031505 | 10 | 327 | 6.4 | 12.9 | 0.00 | 0.00 | 0.00 | 90 | 1015.4 |
| 20260510031006 | 10 | 329 | 4.8 | 12.9 | 0.00 | 0.00 | 0.00 | 90 | 1015.5 |
| 20260510030505 | 10 | 332 | 4.8 | 11.3 | 0.00 | 0.00 | 0.00 | 90 | 1015.4 |
| 20260510025505 | 10 | 332 | 3.2 | 12.9 | 0.00 | 0.00 | 0.00 | 90 | 1015.6 |
| 20260510024505 | 10 | 329 | 3.2 | 8.0 | 0.00 | 0.00 | 0.00 | 90 | 1015.7 |
| 20260510024005 | 9 | 325 | 3.2 | 8.0 | 0.00 | 0.00 | 0.00 | 90 | 1015.7 |
| 20260510023005 | 10 | 319 | 4.8 | 9.7 | 0.00 | 0.00 | 0.00 | 90 | 1015.8 |
| 20260510022505 | 10 | 320 | 3.2 | 8.0 | 0.00 | 0.00 | 0.00 | 90 | 1015.7 |
| 20260510022005 | 10 | 322 | 3.2 | 9.7 | 0.00 | 0.00 | 0.00 | 90 | 1015.8 |
| 20260510021005 | 10 | 328 | 3.2 | 8.0 | 0.00 | 0.00 | 0.00 | 90 | 1015.9 |
| 20260510020505 | 10 | 328 | 3.2 | 8.0 | 0.00 | 0.00 | 0.00 | 90 | 1015.9 |
| 20260510020005 | 10 | 327 | 3.2 | 9.7 | 0.00 | 0.00 | 0.00 | 90 | 1015.9 |
| 20260510015005 | 10 | 333 | 3.2 | 8.0 | 0.00 | 0.00 | 0.00 | 90 | 1015.8 |
| 20260510014505 | 10 | 327 | 3.2 | 11.3 | 0.00 | 0.00 | 0.00 | 90 | 1015.9 |
| 20260510014005 | 10 | 324 | 3.2 | 11.3 | 0.00 | 0.00 | 0.00 | 89 | 1015.8 |
| 20260510013506 | 10 | 327 | 3.2 | 8.0 | 0.00 | 0.00 | 0.00 | 89 | 1015.8 |
| 20260510013005 | 10 | 320 | 0.0 | 4.8 | 0.00 | 0.00 | 0.00 | 89 | 1015.8 |
| 20260510011505 | 10 | 0 | 0.0 | 0.0 | 0.00 | 0.00 | 0.00 | 89 | 1015.8 |
| 20260510011006 | 10 | 0 | 0.0 | 0.0 | 0.00 | 0.00 | 0.00 | 89 | 1015.8 |
| 20260510010005 | 10 | 0 | 0.0 | 0.0 | 0.00 | 0.00 | 0.00 | 88 | 1015.9 |
| 20260510005505 | 10 | 0 | 0.0 | 0.0 | 0.00 | 0.00 | 0.00 | 88 | 1016.0 |
| 20260510005005 | 10 | 326 | 0.0 | 6.4 | 0.00 | 0.00 | 0.00 | 88 | 1016.0 |
| 20260510004505 | 10 | 326 | 1.6 | 6.4 | 0.00 | 0.00 | 0.00 | 88 | 1016.0 |
| 20260510004005 | 11 | 328 | 0.0 | 6.4 | 0.00 | 0.00 | 0.00 | 87 | 1016.1 |
| 20260510003505 | 11 | 335 | 1.6 | 6.4 | 0.00 | 0.00 | 0.00 | 87 | 1016.1 |
| 20260510003005 | 11 | 333 | 3.2 | 8.0 | 0.00 | 0.00 | 0.00 | 87 | 1016.2 |
| 20260510002005 | 11 | 333 | 4.8 | 11.3 | 0.00 | 0.00 | 0.00 | 87 | 1016.2 |
| 20260510001505 | 11 | 332 | 3.2 | 8.0 | 0.00 | 0.00 | 0.00 | 87 | 1016.2 |
| 20260510001005 | 11 | 336 | 3.2 | 8.0 | 0.00 | 0.00 | 0.00 | 87 | 1016.3 |
| 20260510000006 | 11 | 335 | 3.2 | 14.5 | 0.00 | 0.00 | 0.00 | 87 | 1016.3 |
| 20260509235505 | 11 | 335 | 3.2 | 12.9 | 0.00 | 0.00 | 0.00 | 87 | 1016.2 |
| 20260509235005 | 11 | 330 | 3.2 | 12.9 | 0.00 | 0.00 | 0.00 | 87 | 1016.2 |
| 20260509234005 | 11 | 327 | 3.2 | 6.4 | 0.00 | 0.00 | 0.00 | 86 | 1016.3 |
| 20260509233506 | 11 | 333 | 1.6 | 4.8 | 0.00 | 0.00 | 0.00 | 86 | 1016.3 |
| 20260509233005 | 11 | 350 | 1.6 | 6.4 | 0.00 | 0.00 | 0.00 | 85 | 1016.3 |
| 20260509232506 | 11 | 347 | 1.6 | 8.0 | 0.00 | 0.00 | 0.00 | 85 | 1016.2 |
| 20260509231505 | 11 | 340 | 3.2 | 6.4 | 0.00 | 0.00 | 0.00 | 85 | 1016.2 |
| 20260509231005 | 11 | 340 | 3.2 | 8.0 | 0.00 | 0.00 | 0.00 | 85 | 1016.3 |
| 20260509230505 | 11 | 332 | 3.2 | 9.7 | 0.00 | 0.00 | 0.00 | 85 | 1016.4 |
| 20260509225505 | 11 | 337 | 3.2 | 11.3 | 0.00 | 0.00 | 0.00 | 85 | 1016.4 |
| 20260509225005 | 11 | 340 | 3.2 | 9.7 | 0.00 | 0.00 | 0.00 | 85 | 1016.4 |
| 20260509224505 | 11 | 333 | 4.8 | 9.7 | 0.00 | 0.00 | 0.00 | 84 | 1016.4 |
| 20260509224005 | 11 | 331 | 3.2 | 9.7 | 0.00 | 0.00 | 0.00 | 84 | 1016.4 |
| 20260509223505 | 11 | 334 | 3.2 | 9.7 | 0.00 | 0.00 | 0.00 | 84 | 1016.4 |
| 20260509223005 | 11 | 335 | 3.2 | 8.0 | 0.00 | 0.00 | 0.00 | 83 | 1016.4 |
| 20260509222506 | 11 | 332 | 3.2 | 8.0 | 0.00 | 0.00 | 0.00 | 83 | 1016.5 |
| 20260509222005 | 11 | 335 | 3.2 | 8.0 | 0.00 | 0.00 | 0.00 | 83 | 1016.5 |
| 20260509221505 | 12 | 336 | 3.2 | 8.0 | 0.00 | 0.00 | 0.00 | 82 | 1016.4 |
| 20260509220507 | 12 | 347 | 3.2 | 8.0 | 0.00 | 0.00 | 0.00 | 81 | 1016.4 |
| 20260509220005 | 12 | 342 | 3.2 | 6.4 | 0.00 | 0.00 | 0.00 | 81 | 1016.4 |
| 20260509215505 | 12 | 343 | 3.2 | 6.4 | 0.00 | 0.00 | 0.00 | 81 | 1016.3 |
| 20260509214005 | 12 | 351 | 3.2 | 4.8 | 0.00 | 0.00 | 0.00 | 80 | 1016.4 |
| 20260509213505 | 12 | 352 | 3.2 | 6.4 | 0.00 | 0.00 | 0.00 | 79 | 1016.4 |
| 20260509213006 | 12 | 358 | 1.6 | 8.0 | 0.00 | 0.00 | 0.00 | 79 | 1016.5 |
| 20260509212506 | 12 | 2 | 1.6 | 8.0 | 0.00 | 0.00 | 0.00 | 79 | 1016.5 |
| 20260509211505 | 12 | 10 | 0.0 | 4.8 | 0.00 | 0.00 | 0.00 | 78 | 1016.6 |
| 20260509211006 | 12 | 15 | 1.6 | 9.7 | 0.00 | 0.00 | 0.00 | 77 | 1016.6 |
| 20260509210005 | 12 | 16 | 1.6 | 6.4 | 0.00 | 0.00 | 0.00 | 76 | 1016.6 |
| 20260509205505 | 12 | 15 | 1.6 | 8.0 | 0.00 | 0.00 | 0.00 | 76 | 1016.5 |
| 20260509205005 | 12 | 16 | 1.6 | 8.0 | 0.00 | 0.00 | 0.00 | 76 | 1016.5 |
| 20260509204006 | 13 | 10 | 3.2 | 12.9 | 0.00 | 0.00 | 0.00 | 75 | 1016.5 |
| 20260509203505 | 13 | 10 | 3.2 | 12.9 | 0.00 | 0.00 | 0.00 | 75 | 1016.4 |
| 20260509203005 | 13 | 3 | 3.2 | 8.0 | 0.00 | 0.00 | 0.00 | 75 | 1016.3 |
| 20260509202505 | 13 | 358 | 3.2 | 8.0 | 0.00 | 0.00 | 0.00 | 75 | 1016.3 |
| 20260509202005 | 13 | 7 | 1.6 | 8.0 | 0.00 | 0.00 | 0.00 | 74 | 1016.3 |
| 20260509201505 | 13 | 6 | 0.0 | 4.8 | 0.00 | 0.00 | 0.00 | 74 | 1016.4 |
| 20260509201006 | 13 | 6 | 1.6 | 4.8 | 0.00 | 0.00 | 0.00 | 73 | 1016.5 |
| 20260509200505 | 13 | 5 | 0.0 | 4.8 | 0.00 | 0.00 | 0.00 | 72 | 1016.5 |
| 20260509195505 | 13 | 348 | 0.0 | 6.4 | 0.00 | 0.00 | 0.00 | 71 | 1016.5 |
| 20260509195005 | 13 | 6 | 0.0 | 3.2 | 0.00 | 0.00 | 0.00 | 72 | 1016.5 |
| 20260509194505 | 13 | 18 | 0.0 | 6.4 | 0.00 | 0.00 | 0.00 | 72 | 1016.4 |
| 20260509194005 | 13 | 23 | 1.6 | 6.4 | 0.00 | 0.00 | 0.00 | 71 | 1016.4 |
| 20260509193505 | 14 | 26 | 1.6 | 6.4 | 0.00 | 0.00 | 0.00 | 70 | 1016.4 |
| 20260509192507 | 14 | 14 | 0.0 | 3.2 | 0.00 | 0.00 | 0.00 | 69 | 1016.4 |
| 20260509192006 | 14 | 8 | 1.6 | 8.0 | 0.00 | 0.00 | 0.00 | 69 | 1016.4 |
| 20260509191505 | 15 | 11 | 1.6 | 8.0 | 0.00 | 0.00 | 0.00 | 68 | 1016.3 |
| 20260509190505 | 15 | 16 | 3.2 | 6.4 | 0.00 | 0.00 | 0.00 | 67 | 1016.2 |
| 20260509185506 | 15 | 17 | 1.6 | 4.8 | 0.00 | 0.00 | 0.00 | 66 | 1016.2 |
| 20260509185020 | 15 | 17 | 3.2 | 6.4 | 0.00 | 0.00 | 0.00 | 66 | 1016.2 |
| 20260509184506 | 15 | 15 | 1.6 | 6.4 | 0.00 | 0.00 | 0.00 | 66 | 1016.2 |
| 20260509183505 | 16 | 359 | 1.6 | 8.0 | 0.00 | 0.00 | 0.00 | 64 | 1016.1 |
| 20260509183005 | 16 | 356 | 1.6 | 8.0 | 0.00 | 0.00 | 0.00 | 64 | 1016.0 |
| 20260509182505 | 16 | 15 | 1.6 | 8.0 | 0.00 | 0.00 | 0.00 | 63 | 1016.0 |
| 20260509182006 | 16 | 16 | 1.6 | 8.0 | 0.00 | 0.00 | 0.00 | 63 | 1016.0 |
| 20260509181505 | 16 | 9 | 1.6 | 8.0 | 0.00 | 0.00 | 0.00 | 61 | 1015.9 |
| 20260509181005 | 16 | 11 | 1.6 | 8.0 | 0.00 | 0.00 | 0.00 | 60 | 1015.9 |
| 20260509180506 | 16 | 17 | 1.6 | 8.0 | 0.00 | 0.00 | 0.00 | 61 | 1015.9 |
| 20260509180005 | 17 | 15 | 3.2 | 11.3 | 0.00 | 0.00 | 0.00 | 59 | 1015.9 |
| 20260509175005 | 17 | 14 | 4.8 | 14.5 | 0.00 | 0.00 | 0.00 | 58 | 1015.9 |
| 20260509174505 | 17 | 16 | 4.8 | 14.5 | 0.00 | 0.00 | 0.00 | 58 | 1015.9 |
| 20260509174005 | 17 | 359 | 3.2 | 9.7 | 0.00 | 0.00 | 0.00 | 57 | 1016.0 |
| 20260509173505 | 17 | 344 | 1.6 | 11.3 | 0.00 | 0.00 | 0.00 | 55 | 1016.0 |
| 20260509173006 | 17 | 350 | 3.2 | 11.3 | 0.00 | 0.00 | 0.00 | 54 | 1016.1 |
| 20260509172505 | 17 | 343 | 3.2 | 11.3 | 0.00 | 0.00 | 0.00 | 54 | 1016.1 |
| 20260509172005 | 18 | 339 | 1.6 | 8.0 | 0.00 | 0.00 | 0.00 | 54 | 1016.1 |
| 20260509171505 | 18 | 2 | 1.6 | 8.0 | 0.00 | 0.00 | 0.00 | 54 | 1016.0 |
| 20260509171005 | 18 | 13 | 3.2 | 14.5 | 0.00 | 0.00 | 0.00 | 56 | 1016.1 |
| 20260509170505 | 18 | 4 | 3.2 | 14.5 | 0.00 | 0.00 | 0.00 | 54 | 1016.0 |
| 20260509170005 | 18 | 346 | 3.2 | 11.3 | 0.00 | 0.00 | 0.00 | 56 | 1016.0 |
| 20260509165505 | 18 | 356 | 3.2 | 9.7 | 0.00 | 0.00 | 0.00 | 54 | 1016.1 |
| 20260509165006 | 18 | 11 | 4.8 | 14.5 | 0.00 | 0.00 | 0.00 | 54 | 1016.1 |
| 20260509164506 | 18 | 12 | 4.8 | 14.5 | 0.00 | 0.00 | 0.00 | 53 | 1016.1 |
| 20260509164005 | 18 | 7 | 4.8 | 14.5 | 0.00 | 0.00 | 0.00 | 55 | 1016.1 |
| 20260509163505 | 18 | 357 | 3.2 | 11.3 | 0.00 | 0.00 | 0.00 | 52 | 1016.1 |
| 20260509163005 | 18 | 14 | 3.2 | 12.9 | 0.00 | 0.00 | 0.00 | 51 | 1016.1 |
| 20260509162505 | 18 | 6 | 4.8 | 12.9 | 0.00 | 0.00 | 0.00 | 51 | 1016.1 |
| 20260509162006 | 18 | 344 | 3.2 | 11.3 | 0.00 | 0.00 | 0.00 | 52 | 1016.1 |
| 20260509161507 | 18 | 356 | 3.2 | 9.7 | 0.00 | 0.00 | 0.00 | 51 | 1016.1 |
| 20260509161005 | 18 | 23 | 4.8 | 14.5 | 0.00 | 0.00 | 0.00 | 52 | 1016.1 |
| 20260509160505 | 18 | 22 | 6.4 | 14.5 | 0.00 | 0.00 | 0.00 | 51 | 1016.1 |
| 20260509160005 | 18 | 15 | 3.2 | 11.3 | 0.00 | 0.00 | 0.00 | 52 | 1016.0 |
| 20260509155506 | 18 | 17 | 3.2 | 14.5 | 0.00 | 0.00 | 0.00 | 51 | 1016.0 |
| 20260509155005 | 19 | 16 | 6.4 | 14.5 | 0.00 | 0.00 | 0.00 | 48 | 1016.0 |
| 20260509154005 | 20 | 9 | 4.8 | 12.9 | 0.00 | 0.00 | 0.00 | 49 | 1015.9 |
| 20260509153506 | 20 | 4 | 3.2 | 12.9 | 0.00 | 0.00 | 0.00 | 48 | 1015.9 |
| 20260509153007 | 20 | 3 | 4.8 | 14.5 | 0.00 | 0.00 | 0.00 | 48 | 1015.9 |
| 20260509152505 | 20 | 10 | 6.4 | 14.5 | 0.00 | 0.00 | 0.00 | 50 | 1016.0 |
| 20260509152006 | 20 | 7 | 4.8 | 14.5 | 0.00 | 0.00 | 0.00 | 50 | 1016.0 |
| 20260509151506 | 19 | 335 | 3.2 | 11.3 | 0.00 | 0.00 | 0.00 | 52 | 1016.1 |
| 20260509151005 | 19 | 323 | 1.6 | 9.7 | 0.00 | 0.00 | 0.00 | 49 | 1016.2 |
| 20260509150505 | 19 | 20 | 0.0 | 4.8 | 0.00 | 0.00 | 0.00 | 47 | 1016.2 |
| 20260509150005 | 20 | 26 | 1.6 | 11.3 | 0.00 | 0.00 | 0.00 | 46 | 1016.2 |
| 20260509145505 | 20 | 7 | 3.2 | 11.3 | 0.00 | 0.00 | 0.00 | 48 | 1016.2 |
| 20260509145006 | 20 | 322 | 1.6 | 6.4 | 0.00 | 0.00 | 0.00 | 47 | 1016.2 |
| 20260509144506 | 19 | 319 | 1.6 | 6.4 | 0.00 | 0.00 | 0.00 | 50 | 1016.2 |
| 20260509144006 | 18 | 358 | 1.6 | 8.0 | 0.00 | 0.00 | 0.00 | 50 | 1016.2 |
| 20260509143505 | 18 | 19 | 1.6 | 8.0 | 0.00 | 0.00 | 0.00 | 51 | 1016.2 |
| 20260509142506 | 19 | 331 | 1.6 | 8.0 | 0.00 | 0.00 | 0.00 | 48 | 1016.3 |
| 20260509141505 | 20 | 37 | 6.4 | 12.9 | 0.00 | 0.00 | 0.00 | 49 | 1016.5 |